GW0246 Weather Reports


time (UTC)temp
C
wind
direction
speed
KPH
gust
KPH
rain 1hr
cm
rain 24hr
cm
rain mn
cm
humidity
%
barometer
mb
20260503193605 16 271 3.2 8.0 0.00 0.03 0.03 68 1014.4
20260503192917 16 276 3.2 9.7 0.00 0.03 0.03 69 1014.4
20260503191805 16 293 4.8 17.7 0.00 0.03 0.03 70 1014.4
20260503191117 16 293 3.2 17.7 0.00 0.03 0.03 69 1014.5
20260503190215 16 285 1.6 6.4 0.00 0.03 0.03 70 1014.6
20260503185616 16 229 1.6 6.4 0.00 0.03 0.03 69 1014.6
20260503184505 15 268 1.6 8.0 0.00 0.03 0.03 72 1014.6
20260503183816 15 277 0.0 8.0 0.00 0.03 0.03 72 1014.6
20260503182918 15 271 1.6 6.4 0.00 0.03 0.03 75 1014.6
20260503182015 14 300 1.6 8.0 0.00 0.03 0.03 80 1014.6
20260503180904 13 297 3.2 8.0 0.00 0.03 0.03 82 1014.6
20260503180215 13 303 3.2 8.0 0.00 0.03 0.03 82 1014.6
20260503175617 13 296 1.6 8.0 0.00 0.03 0.03 82 1014.7
20260503174504 15 236 1.6 6.4 0.00 0.03 0.03 79 1014.6
20260503173816 15 237 1.6 6.4 0.00 0.03 0.03 77 1014.6
20260503172705 15 204 1.6 8.0 0.00 0.03 0.03 80 1014.6
20260503172016 14 247 1.6 6.4 0.00 0.03 0.03 81 1014.6
20260503170905 14 230 1.6 4.8 0.00 0.03 0.03 80 1014.4
20260503160217 12 226 0.0 3.2 0.03 0.03 0.03 89 1014.3
20260503131116 11 106 0.0 4.8 0.00 0.00 0.00 90 1012.7
20260503120214 11 201 0.0 1.6 0.00 0.00 0.00 89 1012.4
20260503080905 12 216 0.0 6.4 0.00 0.00 0.00 84 1012.8
20260503072915 12 219 0.0 1.6 0.00 0.00 0.00 83 1013.0
20260503071805 12 180 0.0 3.2 0.00 0.00 0.00 83 1013.0
20260503070904 12 186 0.0 4.8 0.00 0.00 0.00 84 1013.0
20260503054717 12 261 0.0 1.6 0.00 0.00 0.00 83 1013.2
20260503053819 12 230 0.0 1.6 0.00 0.00 0.00 83 1013.2
20260503052916 12 237 0.0 1.6 0.00 0.00 0.00 83 1013.3
20260503052019 12 248 0.0 3.2 0.00 0.00 0.00 83 1013.4
20260503050904 12 231 0.0 1.6 0.00 0.00 0.00 83 1013.5
20260503050005 12 248 0.0 3.2 0.00 0.00 0.00 83 1013.4
20260503045405 12 264 0.0 3.2 0.00 0.00 0.00 83 1013.4
20260503044505 12 266 0.0 4.8 0.00 0.00 0.00 83 1013.4
20260503043604 12 268 0.0 1.6 0.00 0.00 0.00 83 1013.5
20260503042917 12 260 0.0 1.6 0.00 0.00 0.00 83 1013.4
20260503042014 12 259 0.0 4.8 0.00 0.00 0.00 83 1013.4
20260503041117 12 263 0.0 3.2 0.00 0.00 0.00 83 1013.3
20260503040219 12 261 0.0 3.2 0.00 0.00 0.00 83 1013.2
20260503035405 12 216 0.0 1.6 0.00 0.00 0.00 83 1013.0
20260503034718 12 267 0.0 4.8 0.00 0.00 0.00 83 1012.9
20260503033604 12 270 0.0 3.2 0.00 0.00 0.00 82 1012.8
20260503032705 12 272 0.0 4.8 0.00 0.00 0.00 82 1012.7
20260503031804 12 271 0.0 4.8 0.00 0.00 0.00 82 1012.6
20260503030905 13 277 0.0 3.2 0.00 0.00 0.00 81 1012.6
20260503030214 13 299 1.6 6.4 0.00 0.00 0.00 81 1012.6
20260503025404 13 276 0.0 9.7 0.00 0.00 0.00 81 1012.6
20260503024718 13 275 1.6 4.8 0.00 0.00 0.00 81 1012.6
20260503023605 13 270 1.6 6.4 0.00 0.00 0.00 81 1012.6
20260503022704 13 287 1.6 6.4 0.00 0.00 0.00 81 1012.5
20260503022015 13 279 1.6 8.0 0.00 0.00 0.00 80 1012.6
20260503020905 13 283 1.6 8.0 0.00 0.00 0.00 80 1012.5
20260503020215 13 286 1.6 8.0 0.00 0.00 0.00 80 1012.5
20260503015405 13 299 3.2 9.7 0.00 0.00 0.00 80 1012.5
20260503014504 13 291 3.2 9.7 0.00 0.00 0.00 80 1012.5
20260503013604 13 287 3.2 9.7 0.00 0.00 0.00 79 1012.6
20260503012705 13 289 3.2 9.7 0.00 0.00 0.00 79 1012.5
20260503011806 13 281 3.2 11.3 0.00 0.00 0.00 80 1012.5
20260503011118 14 293 1.6 8.0 0.00 0.00 0.00 80 1012.5
20260503010216 14 295 1.6 9.7 0.00 0.00 0.00 80 1012.6
20260503005617 14 283 1.6 9.7 0.00 0.00 0.00 80 1012.6
20260503004715 14 262 1.6 8.0 0.00 0.00 0.00 80 1012.6
20260503003605 14 286 3.2 9.7 0.00 0.00 0.00 81 1012.5
20260503002705 14 276 1.6 9.7 0.00 0.00 0.00 80 1012.5
20260503001805 14 292 1.6 6.4 0.00 0.00 0.00 81 1012.6
20260503001119 14 295 1.6 8.0 0.00 0.00 0.00 82 1012.6
20260503000005 14 288 4.8 11.3 0.00 0.00 0.00 84 1012.7
20260502235618 13 295 4.8 11.3 0.00 0.00 0.00 83 1012.7
20260502234715 14 282 3.2 9.7 0.00 0.00 0.00 82 1012.7
20260502233818 14 309 1.6 8.0 0.00 0.00 0.00 82 1012.8
20260502232704 14 289 1.6 11.3 0.00 0.00 0.00 82 1012.7
20260502231804 14 297 3.2 9.7 0.00 0.00 0.00 82 1012.8
20260502231115 14 291 4.8 12.9 0.00 0.00 0.00 82 1012.9
20260502230005 14 298 3.2 11.3 0.00 0.00 0.00 83 1013.0
20260502225405 14 304 3.2 9.7 0.00 0.00 0.00 83 1013.3
20260502224505 14 281 3.2 9.7 0.00 0.00 0.00 83 1013.4
20260502223604 14 276 3.2 11.3 0.00 0.00 0.00 83 1013.7
20260502222916 14 289 3.2 11.3 0.00 0.00 0.00 83 1013.8
20260502221805 15 278 3.2 12.9 0.00 0.00 0.00 83 1013.8
20260502221115 14 294 4.8 12.9 0.00 0.00 0.00 83 1013.9
20260502220218 15 304 3.2 12.9 0.00 0.00 0.00 82 1014.0
20260502215404 15 314 4.8 11.3 0.00 0.00 0.00 82 1014.1
20260502214505 15 286 4.8 14.5 0.00 0.00 0.00 80 1014.2
20260502213604 15 291 3.2 14.5 0.00 0.00 0.00 78 1014.3
20260502212705 16 296 3.2 12.9 0.00 0.00 0.00 78 1014.4
20260502211805 16 281 3.2 12.9 0.00 0.00 0.00 76 1014.4
20260502210905 16 294 0.0 9.7 0.00 0.00 0.00 75 1014.4
20260502210005 16 284 1.6 8.0 0.00 0.00 0.00 77 1014.5
20260502205404 16 263 3.2 12.9 0.00 0.00 0.00 77 1014.5
20260502204717 16 283 3.2 9.7 0.00 0.00 0.00 78 1014.5
20260502203814 16 289 3.2 12.9 0.00 0.00 0.00 78 1014.6
20260502202917 16 284 3.2 12.9 0.00 0.00 0.00 78 1014.7
20260502202014 16 307 3.2 11.3 0.00 0.00 0.00 76 1014.9
20260502200904 16 295 3.2 11.3 0.00 0.00 0.00 77 1015.0
20260502200219 16 287 3.2 11.3 0.00 0.00 0.00 77 1015.1
20260502195405 16 284 3.2 11.3 0.00 0.00 0.00 73 1015.1
20260502194504 16 273 1.6 9.7 0.00 0.00 0.00 72 1015.3